Location: Niedergestelen
(46.3129°N, 7.7822°E)
Time: 06:17:40
(UTC+00:00)

PSLV R/B - Pass Details

Date: 01 December 2020
Orbit: 568 x 598 km, 98.2° (Epoch: 18 January)

Event Time Altitude Azimuth Distance (km) Brightness Sun altitude
Exits shadow 17:43:23 54° 89° (E) 699 3.9 -19.9°
Maximum altitude 17:43:35 54° 101° (E) 694 3.9 -19.9°
Drops below altitude 10° 17:47:32 10° 179° (S) 1,864 6.6 -20.6°
Sets 17:49:42 0° 184° (S) 2,759 7.6 -21.0°
